Regional Weather Roundup
Issued by NWS Nashville, TN

Home | Current Version | Previous Version | Text Only | Print | Product List | Glossary On
Versions: 1 2 3 4 5 6 7 8 9 10 11 12 13 14 15 16 17 18 19 20 21 22 23 24 25 26 27 28 29 30 31 32 33 34 35 36 37 38 39 40 41 42 43 44 45 46 47 48 49 50
000
ASUS44 KOHX 130910
RWROHX
MIDDLE TENNESSEE HOURLY WEATHER ROUNDUP
NATIONAL WEATHER SERVICE NASHVILLE TN
300 AM CST SAT FEB 13 2016

NOTE: "FAIR" INDICATES FEW OR NO CLOUDS BELOW 12,000 FEET WITH
NO SIGNIFICANT WEATHER AND/OR OBSTRUCTIONS TO VISIBILITY.

* THESE REPORTS ARE NOT UNDER NWS QUALITY CONTROL AND MAY NOT
  REPORT WEATHER SUCH AS PRECIPITATION AND FOG.


TNZ005>011-023>034-057-059-062>066-078-080-131000
...NORTHERN MIDDLE TENNESSEE...

CITY           SKY/WX    TMP DP  RH WIND       PRES   REMARKS
CLARKSVILLE    PTCLDY    22  12  65 N13       30.48R WCI  10
CROSSVILLE     CLEAR     20  12  71 NW12G21   30.29R WCI   8
DICKSON        PTCLDY    19  12  73 N8        30.42S WCI   9
LEBANON        PTCLDY    22  12  65 NW8       30.41R WCI  13
LIVINGSTON     CLEAR     21   9  60 N8        30.34R WCI  11
NASHVILLE      CLOUDY    25  12  58 N8        30.45R WCI  16
PORTLAND       PTCLDY   N/A N/A N/A NW9       30.41R
ROCKWOOD       CLOUDY    22  13  68 VRB7      30.28R WCI  14
SMYRNA         PTCLDY    24  13  63 N10       30.46R WCI  14
SPARTA         PTCLDY    23  10  58 N9        30.36R WCI  13
$$
TNZ056-058-060-061-075>077-079-093>097-131000
...SOUTHERN MIDDLE TENNESSEE...

CITY           SKY/WX    TMP DP  RH WIND       PRES   REMARKS
COLUMBIA       CLEAR     25  18  74 N8        30.41R WCI  16
FAYETTEVILLE   PTCLDY    27  18  69 N15       30.37R WCI  15
LEWISBURG      PTCLDY    24  13  63 N9        30.42S WCI  14
MCMINNVILLE    PTCLDY    23  12  63 N12       30.37R WCI  12
SHELBYVILLE    CLEAR     25  16  68 N13       30.41R WCI  13
TULLAHOMA      CLEAR     21  14  73 N12       30.37R WCI   9
WINCHESTER     CLEAR     25  18  74 N9        30.36S WCI  15
$$


...KEY TO REMARKS...
VSB - VISIBILITY IN MILES
WCI - WIND CHILL INDEX
HX  - HEAT INDEX




USA.gov is the U.S. government's official web portal to all federal, state and local government web resources and services.